SCP
0 0 0 0 0 0 0 0 0 0 0 0 0 0 0 0 0 0 0 0 0 0 0 0 0 0 0 0 0 0 0 0 0 0 0 0 0 0 0 0 0 0 0
0 0 0 0 0 0 0 0 0 0 0 0 0 0 0 0 0 0 0 0 0 0 0 0 0 0 0 0 0 0 0 0 0 0 0 0 0 0 0 0 0 0 0
0 0 0 0 0 0 0 0 0 0 0 0 0 0 0 0 0 0 0 0 0 0 0 0 0 0 0 0 0 0 0 0 0 0 0 0 0 0 0 0 0 0 0
0 0 0 0 0 0 0 0 0 0 0 0 0 0 0 0 0 0 0 0 0 0 0 0 0 0 0 0 0 0 0 0 0 0 0 0 0 0 0 0 0 0 0
0 0 0 0 0 0 0 0 0 0 0 0 0 0 0 0 0 0 0 0 0 0 0 0 0 0 0 0 0 0 0 0 0 0 0 0 0 0 0 0 0 0 0
0 0 0 0 0 0 0 0 0 0 0 0 0 0 0 0 0 0 0 0 0 0 0 0 0 0 0 0 0 0 0 0 0 0 0 0 0 0 0 0 0 0 0
0 0 0 0 0 0 0 0 0 0 0 0 0 0 0 0 0 0 0 0 0 0 0 0 0 0 0 0 0 0 0 0 0 0 0 0 0 0 0 0 0 0 0
0 0 0 0 0 0 0 0 0 0 0 0 0 0 0 0 0 0 0 0 0 0 0 0 0 0 0 0 0 0 0 0 0 0 0 0 0 0 0 0 0 0 0
0 0 0 0 0 0 0 0 0 0 0 0 0 0 0 0 0 0 0 0 0 0 0 0 0 0 0 0 0 0 0 0 0 0 0 0 0 0 0 0 0 0 0
0 0 0 0 0 0 0 0 0 0 0 0 0 0 0 0 0 0 0 0 0 0 0 0 0 0 0 0 0 0 0 0 0 0 0 0 0 0 0 0 0 0 0
0 0 0 0 0 0 0 0 0 0 0 0 0 0 0 0 0 0 0 0 0 0 0 0 0 0 0 0 0 0 0 0 0 0 0 0 0 0 0 0 0 0 0
0 0 0 0 0 0 0 0 0 0 0 0 0 0 0 0 0 0 0 0 0 0 0 0 0 0 0 0 0 0 0 0 0 0 0 0 0 0 0 0 0 0 0
0 0 0 0 0 0 0 0 0 0 0 0 0 0 0 0 0 0 0 0 0 0 0 0 0 0 0 0 0 0 0 0 0 0 0 0 0 0 0 0 0 0 0
0 0 0 0 0 0 0 0 0 0 0 0 0 0 0 0 0 0 0 0 0 0 0 0 0 0 0 0 0 0 0 0 0 0 0 0 0 0 0 0 0 0 0
0 0 0 0 0 0 0 0 0 0 0 0 0 0 0 0 0 0 0 0 0 0 0 0 0 0 0 0 0 0 0 0 0 0 0 0 0 0 0 0 0 0 0
0 0 0 0 0 0 0 0 0 0 0 0 0 0 0 0 0 0 0 0 0 0 0 0 0 0 0 0 0 0 0 0 0 0 0 0 0 0 0 0 0 0 0
0 0 0 0 0 0 0 0 0 0 0 0 0 0 0 0 0 0 0 0 0 0 0 0 0 0 0 0 0 0 0 0 0 0 0 0 0 0 0 0 0 0 0
0 0 0 0 0 0 0 0 0 0 0 0 0 0 0 0 0 0 0 0 0 0 0 0 0 0 0 0 0 0 0 0 0 0 0 0 0 0 0 0 0 0 0
0 0 0 0 0 0 0 0 0 0 0 0 0 0 0 0 0 0 0 0 0 0 0 0 0 0 0 0 0 0 0 0 0 0 0 0 0 0 0 0 0 0 0
0 0 0 0 0 0 0 0 0 0 0 0 0 0 0 0 0 0 0 0 0 0 0 0 0 0 0 0 0 0 0 0 0 0 0 0 0 0 0 0 0 0 0
-0 0 0 0 0 0 0 0 0 0 0 0 0 0 0 0 0 0 0 -0 0 0 0 0 0 0 0 0 0 0 0 0 0 0 0 0 0 0 0 0 0 0 0
-0 0 0 0 0 0 0 0 0 0 0 0 0 0 0 0 0 0 0 0 0 0 0 0 0 0 0 0 0 0 0 0 0 0 0 0 0 0 0 0 0 0 0
0 0 0 0 0 0 0 0 0 0 0 0 0 0 0 0 0 0 0 0 0 0 0 0 0 0 0 0 0 0 0 0 0 0 0 0 0 0 0 0 0 0 0
0 0 0 0 0 0 0 0 0 0 0 0 0 0 0 0 0 0 0 0 0 0 0 0 0 0 0 0 0 0 0 0 0 0 0 0 0 0 0 0 0 0 0
0 0 0 0 0 0 0 0 0 0 0 0 0 0 0 0 0 0 0 0 0 0 0 0 0 0 0 0 0 0 0 0 0 0 0 0 0 0 0 0 0 0 0
0 0 0 0 0 0 0 0 0 0 0 0 0 0 0 0 0 0 0 0 0 0 0 0 0 0 0 0 0 0 0 0 0 0 -0 0 0 0 0 0 0 0 0
Wind_Speed
3 3 2 2 2 1 1 1 2 2 2 2 2 2 2 2 2 1 2 2 2 3 2 2 3 2 1 1 1 1 1 2 2 2 2 2 2 2 2 2 2 2 2
3 2 2 2 1 1 1 1 1 2 2 2 2 1 2 2 2 1 2 2 2 2 3 2 3 1 1 1 1 1 1 1 2 2 2 1 2 3 3 3 3 3 2
3 3 2 1 1 1 1 1 1 1 1 1 1 2 2 2 2 2 2 2 2 2 2 2 2 1 1 1 1 1 1 1 1 2 2 1 1 1 1 2 2 2 3
3 3 2 2 2 2 1 1 1 1 1 1 1 2 2 1 1 1 1 2 2 2 2 2 2 1 2 1 1 1 1 0 0 1 1 1 1 1 1 1 2 2 2
3 3 3 3 2 2 1 1 1 1 1 1 1 2 1 1 1 1 1 2 2 3 3 2 2 2 2 2 1 1 1 1 0 0 1 1 1 1 1 1 2 2 2
4 3 3 2 2 2 1 1 1 1 1 1 1 2 2 1 2 2 1 2 2 2 3 3 3 3 3 3 2 2 3 3 2 1 1 2 3 2 2 1 1 0 2
3 3 3 3 2 2 1 1 1 1 1 1 1 1 2 3 4 3 3 2 2 2 2 2 3 3 3 2 3 3 2 3 5 3 3 3 3 3 2 1 2 2 3
3 2 3 3 3 2 1 1 1 1 1 1 2 2 2 3 4 3 4 2 1 2 2 2 1 3 3 2 1 2 3 3 3 3 4 5 4 4 4 3 3 2 3
3 3 3 3 3 2 2 2 1 1 1 1 2 2 2 4 5 4 3 1 1 3 3 2 1 2 4 3 1 2 4 4 4 4 6 6 7 6 4 2 1 1 2
3 3 3 3 3 3 3 2 1 1 2 2 2 2 2 3 5 5 3 0 1 3 3 3 3 3 5 4 1 1 3 5 4 4 4 5 5 5 6 5 4 3 2
3 2 2 3 3 3 2 2 1 1 1 2 3 3 3 4 5 5 3 1 2 2 2 3 3 5 5 5 3 3 6 5 3 3 4 4 3 3 4 4 5 5 4
3 3 3 3 2 2 2 1 1 1 1 2 3 4 4 4 4 4 4 3 3 2 3 3 4 6 7 7 5 6 8 5 2 2 3 4 4 4 4 4 5 6 6
3 3 2 2 2 2 2 2 1 1 1 2 2 3 4 4 4 5 5 5 5 3 4 6 7 8 7 6 7 8 6 2 2 2 4 4 4 4 3 3 3 4 4
3 3 2 2 1 1 1 2 2 2 2 2 2 3 3 3 4 3 3 3 3 2 3 5 7 8 6 6 6 5 3 3 3 4 4 4 3 3 3 2 3 2 2
3 3 2 2 2 2 2 2 3 4 4 4 4 3 3 4 6 5 3 2 2 2 2 2 2 3 3 4 4 4 3 3 3 3 4 4 4 3 4 3 2 2 2
3 2 2 2 2 2 2 3 5 6 7 8 8 7 5 8 8 7 6 5 5 3 1 2 3 4 4 4 4 4 4 4 4 4 4 4 4 4 4 3 2 3 3
4 3 2 2 2 2 2 2 4 6 6 8 10 10 9 10 9 8 7 5 5 3 2 3 4 4 4 4 4 4 4 4 3 3 3 4 4 4 4 3 3 3 3
4 4 3 3 3 3 3 3 3 3 4 5 6 8 9 10 9 7 5 2 3 2 3 4 5 5 4 5 5 4 5 4 3 3 3 3 3 3 3 3 3 4 4
4 3 3 3 3 3 3 3 3 4 4 4 4 5 6 6 6 5 3 2 3 4 4 4 5 5 5 5 4 4 4 4 4 3 3 3 3 3 3 4 4 5 4
3 5 4 3 3 3 3 3 3 3 4 3 3 4 2 1 1 2 2 3 3 4 4 5 5 5 4 4 4 4 3 4 4 3 3 3 3 3 4 5 4 4 4
3 4 5 3 3 3 3 3 3 3 3 3 4 4 3 2 3 3 3 3 3 4 4 4 4 4 4 3 3 4 4 4 3 3 3 3 4 4 4 4 4 4 4
3 3 3 3 3 3 3 3 3 3 3 4 4 4 4 2 3 3 3 4 4 4 4 4 4 4 3 3 3 3 4 4 4 4 4 4 4 4 4 3 4 4 4
3 3 3 3 3 4 3 3 3 3 4 4 3 3 2 2 3 3 4 4 3 3 3 3 3 4 3 3 3 2 3 4 4 4 4 4 4 4 4 4 5 5 5
3 3 3 3 3 3 3 3 3 4 4 3 3 3 3 3 3 3 3 3 3 3 3 2 2 3 4 3 2 2 2 3 4 3 4 3 4 4 4 5 5 6 5
3 3 3 3 3 3 3 3 3 3 3 3 3 3 2 2 2 2 3 2 2 2 2 2 2 2 3 2 2 2 3 4 4 3 3 3 4 5 5 5 5 5 5
3 3 3 2 2 2 2 2 3 3 3 3 2 2 2 2 2 2 2 2 2 2 2 2 2 2 2 2 3 3 3 4 5 5 3 3 4 4 5 4 5 5 5
Wind_Direction
186 182 168 183 186 177 185 211 222 238 242 248 258 266 276 289 291 280 276 286 291 290 292 282 284 278 266 268 245 214 206 182 212 270 268 260 232 238 240 239 237 232 238
176 163 163 173 170 175 200 231 230 243 253 242 245 264 272 278 279 272 281 297 287 286 291 295 297 310 306 278 253 250 240 208 190 240 277 261 243 235 234 236 243 233 231
164 154 159 171 178 206 224 233 235 234 256 260 239 254 259 270 276 276 279 294 295 284 282 279 289 320 317 302 286 266 258 248 188 202 261 264 261 233 245 256 249 255 242
156 154 170 193 202 215 220 221 226 218 229 266 271 271 260 268 282 283 301 313 314 309 300 281 275 252 249 275 290 269 233 267 241 209 265 278 274 260 170 229 275 270 262
162 168 191 206 204 189 196 225 231 230 233 247 287 295 286 301 302 298 298 311 322 323 324 315 291 281 265 254 254 244 202 209 241 241 275 290 284 262 231 231 251 277 275
166 183 195 194 181 183 197 217 212 254 269 285 305 297 304 312 319 308 301 309 314 312 314 322 319 308 312 310 294 258 212 198 211 223 247 240 250 241 243 231 220 302 289
165 180 190 185 183 189 190 171 228 244 220 303 309 329 319 308 310 310 300 288 297 300 292 306 326 334 336 320 307 308 295 242 214 202 217 231 227 223 207 235 221 214 239
172 180 184 184 191 190 176 206 239 251 251 280 296 306 302 301 305 309 308 312 312 307 294 273 286 310 312 315 311 322 311 292 255 221 217 230 232 224 207 208 219 240 270
183 195 198 188 188 189 199 229 242 246 269 269 277 291 295 297 303 304 302 322 327 317 315 308 283 291 301 313 328 310 314 308 295 257 235 246 251 246 221 191 217 212 277
195 198 195 184 184 194 208 224 232 224 252 275 295 292 276 279 292 300 292 233 306 306 314 311 297 286 299 313 288 274 287 288 301 307 290 280 265 256 231 205 200 200 225
191 183 186 187 192 196 200 215 224 244 295 303 301 300 293 278 285 291 278 200 239 282 299 301 295 298 298 298 285 250 252 265 280 279 283 285 281 265 247 221 206 199 206
177 181 194 197 203 185 181 223 243 229 282 294 299 306 303 291 280 280 271 245 232 235 266 278 284 296 297 292 284 268 272 276 265 275 279 278 272 266 259 243 223 220 222
172 188 201 197 208 185 182 209 247 248 246 272 277 288 298 297 293 285 277 269 256 239 258 270 283 291 296 291 277 276 278 258 243 255 263 266 259 258 261 265 253 236 242
176 191 196 186 216 225 219 211 211 228 238 254 261 269 282 291 290 292 291 291 290 281 285 290 293 291 285 275 283 287 264 235 227 239 254 260 265 270 268 254 255 248 260
175 188 195 199 204 222 244 237 227 234 222 220 239 238 249 274 272 262 259 268 264 265 291 302 307 308 307 300 295 288 277 262 244 241 245 257 263 264 264 251 238 236 231
173 185 196 206 217 224 244 285 276 255 258 251 244 239 248 250 266 273 274 269 264 261 253 281 288 282 276 278 282 287 282 269 256 246 246 246 251 254 262 260 232 223 240
181 190 198 207 216 233 237 244 281 297 287 270 262 258 251 258 264 266 270 277 273 242 231 263 270 272 274 273 268 265 269 269 260 254 254 251 249 251 249 256 254 245 249
184 195 199 213 224 234 241 244 244 259 284 291 284 269 266 264 264 265 269 291 297 263 242 258 267 269 269 270 270 267 269 275 269 259 255 255 253 250 252 254 252 249 252
195 205 210 222 233 239 247 254 257 256 258 269 287 297 284 272 272 267 228 217 258 275 270 264 261 261 263 266 267 267 266 269 267 259 257 260 261 254 255 255 253 259 258
211 223 224 226 243 251 252 253 259 264 268 272 275 272 281 312 300 284 239 239 249 264 272 274 274 271 267 268 271 274 274 273 273 265 262 266 265 258 257 258 256 255 250
215 228 235 239 241 243 245 246 251 258 262 266 266 265 244 228 252 257 253 247 243 253 259 264 271 277 270 268 274 280 279 272 265 261 263 268 269 268 265 259 258 258 259
209 221 227 234 243 249 253 252 253 259 263 264 272 282 269 244 254 258 254 256 252 249 251 255 265 265 263 265 266 271 275 272 271 271 269 268 267 266 268 266 266 268 266
207 227 239 244 244 252 256 258 256 257 260 263 270 275 271 258 257 255 259 265 265 265 262 255 262 276 282 275 266 256 267 275 271 268 270 272 274 274 273 268 265 264 263
207 226 236 245 248 247 246 254 258 261 262 264 268 271 271 265 266 266 262 266 269 273 275 273 276 286 295 298 301 305 301 298 298 284 271 271 279 285 285 284 283 279 274
207 228 237 237 242 242 245 254 262 267 269 269 274 275 275 273 274 278 280 282 286 288 298 304 297 295 305 316 319 312 308 302 298 298 292 281 279 283 287 288 285 285 284
214 228 242 245 241 237 238 247 258 266 271 276 277 269 268 271 278 285 289 294 295 296 301 305 305 309 313 308 307 307 304 303 302 298 291 282 281 281 286 286 288 288 288